RH
24 25 27 33 39 42 39 36 29 29 25 25 27 27 27 29 31 30 32 31 30 30 32 34 30 28 27 24 25 24 25 25 24 24 24 24 22 22 25 32 36 38 34 35 37
25 25 29 38 43 40 34 30 27 28 25 27 28 31 34 35 33 33 34 34 36 35 38 38 35 36 33 30 28 27 25 27 28 28 27 26 25 24 23 29 39 46 45 42 39
26 30 39 43 41 37 31 29 28 27 29 30 35 37 39 38 37 38 39 40 40 40 41 43 43 40 37 34 32 33 32 32 31 28 27 27 27 27 26 26 35 48 59 55 47
28 36 42 40 38 34 30 29 30 32 31 35 39 40 40 40 40 40 43 44 45 46 45 43 40 38 38 41 38 37 36 32 32 30 29 29 28 28 28 28 28 36 52 60 52
39 43 42 38 37 33 31 31 33 34 34 36 40 39 39 40 42 41 42 43 44 44 43 42 38 39 41 40 41 41 40 40 33 32 30 34 30 26 26 25 26 31 44 58 65
39 43 42 42 39 34 32 34 35 39 38 37 37 37 37 39 40 41 42 44 46 46 45 45 40 38 42 43 43 43 43 39 38 35 36 32 34 30 26 25 24 25 34 45 62
40 40 44 43 41 37 37 39 41 38 37 36 35 35 35 37 37 38 40 41 43 45 47 48 48 43 43 45 42 41 42 40 39 42 38 37 36 35 28 26 26 27 28 41 49
41 44 47 46 42 42 41 41 41 37 33 32 32 33 35 36 36 36 37 40 42 45 48 47 49 50 48 43 42 41 43 45 44 42 45 47 35 34 33 29 29 31 32 37 48
41 46 48 48 48 49 45 42 38 34 32 32 31 31 33 33 34 35 37 37 39 43 47 49 53 54 54 49 46 51 44 43 48 44 44 40 39 34 35 34 32 34 36 42 54
43 47 49 50 50 47 42 40 35 32 30 30 30 32 33 35 37 36 37 38 38 40 45 49 52 56 53 50 47 50 50 44 39 37 44 42 42 38 39 36 30 29 38 53 74
45 50 48 50 46 40 36 31 27 29 29 32 36 33 34 36 35 37 40 40 40 42 45 50 50 54 54 50 42 44 48 45 39 38 42 42 42 40 41 37 28 28 45 73 88
50 51 48 38 31 31 31 29 29 30 34 36 36 35 33 35 36 40 41 42 44 46 51 55 49 51 54 52 49 41 43 42 40 40 40 44 45 44 41 32 29 31 58 89 99
54 54 45 33 32 32 30 28 28 32 36 35 36 35 38 43 47 47 47 44 43 42 49 51 50 54 59 59 52 45 41 41 40 43 41 40 40 43 42 34 32 38 60 86 100
56 54 48 40 35 40 35 33 36 36 39 35 36 39 44 45 47 44 44 44 40 41 46 52 57 58 57 53 50 49 46 44 41 36 35 33 35 37 33 28 32 47 66 83 92
56 56 50 38 35 36 36 37 37 34 39 45 42 41 40 41 41 39 38 36 38 42 42 46 51 54 52 49 46 46 46 43 35 32 35 39 36 35 32 35 40 53 66 87 92
58 59 57 49 42 45 48 49 46 45 48 50 50 47 44 41 38 38 36 34 34 38 39 42 45 45 46 48 48 45 41 34 34 36 36 39 41 41 36 44 55 75 83 85 92
56 56 53 52 54 52 52 49 44 44 44 44 41 39 38 37 36 34 34 34 36 37 38 39 42 47 51 50 46 42 39 37 35 33 33 36 42 43 44 57 61 67 68 74 77
57 54 51 48 46 44 43 43 42 42 39 38 37 36 36 36 35 33 33 36 38 35 34 35 39 46 47 42 37 37 37 37 33 35 36 39 42 49 70 73 70 62 67 72 67
54 51 48 49 48 46 44 43 41 41 39 37 35 34 34 32 30 31 33 34 38 40 40 33 36 38 37 35 33 31 32 35 38 37 43 41 55 71 72 67 60 68 66 62 64
48 50 46 44 45 42 40 38 36 37 34 33 32 30 30 29 28 30 33 35 34 37 35 35 34 37 36 36 34 30 32 34 41 44 47 40 60 68 77 70 72 64 53 51 58
44 46 46 45 42 40 38 38 38 38 36 34 34 34 32 32 32 33 35 35 35 33 32 32 32 32 33 32 30 34 35 41 48 49 47 42 80 81 92 79 70 58 62 68 63
39 38 37 36 36 36 36 35 36 38 37 35 36 36 34 34 35 36 33 33 31 29 30 32 31 29 28 28 33 37 44 50 44 43 46 81 87 100 90 77 73 83 88 85 83
38 40 40 38 36 35 33 35 36 37 41 40 37 36 36 37 34 33 33 32 31 31 34 45 45 40 36 44 45 46 52 56 62 72 87 82 97 84 76 76 91 97 94 98 100
31 33 33 35 38 39 39 36 35 36 37 36 34 34 34 34 32 30 31 32 40 45 64 61 61 64 54 63 67 67 66 71 90 96 88 82 82 89 83 100 98 97 100 100 100
29 31 32 31 32 31 29 30 31 31 31 31 31 34 34 36 42 42 43 58 69 80 84 73 64 67 59 60 62 62 68 94 95 86 89 96 96 94 100 100 100 100 90 83 89
71 73 64 74 66 65 62 62 43 46 40 33 34 41 40 47 57 71 95 98 100 98 99 88 65 59 52 70 72 58 72 78 76 89 87 94 99 90 93 88 88 85 88 100 100
61 63 58 53 66 80 90 92 88 93 82 82 85 94 100 96 92 92 98 98 86 81 87 78 74 72 60 69 61 56 63 61 60 61 71 78 88 93 87 88 90 90 98 95 95
Wind_Speed
49 46 42 37 32 30 30 27 26 25 25 23 23 21 21 19 19 19 19 19 18 18 19 19 19 19 21 22 24 26 27 29 30 32 34 36 37 34 31 29 28 29 28 31 33
47 43 38 33 31 30 28 27 25 24 23 20 20 17 15 13 15 16 16 16 16 16 17 18 18 20 21 21 23 26 27 29 30 31 34 35 38 37 35 32 30 30 31 32 33
44 40 35 32 30 28 28 26 25 22 20 18 16 13 11 10 10 10 11 12 12 13 14 15 17 18 19 21 23 26 29 31 31 32 33 35 38 39 39 36 35 32 33 34 34
41 36 33 29 28 28 27 24 22 20 17 15 12 10 8 7 6 7 8 9 10 11 12 13 14 17 19 21 23 26 29 31 33 34 35 36 39 41 40 39 38 38 35 36 36
38 34 31 28 26 26 25 22 20 17 14 11 7 6 4 3 3 4 6 7 8 9 10 12 14 16 19 21 24 27 30 32 34 36 36 39 41 42 43 41 40 39 40 39 40
36 31 29 27 25 24 23 19 16 12 10 8 6 5 4 1 2 5 6 8 10 12 13 15 15 17 20 23 26 28 31 34 36 38 40 40 44 43 44 45 44 44 42 42 42
34 30 26 24 23 22 21 18 15 13 12 10 9 7 6 6 7 9 11 13 14 15 18 18 19 19 21 24 27 30 33 35 36 39 41 44 45 48 45 46 48 47 46 45 46
31 28 26 24 23 21 20 18 16 15 13 13 12 11 11 11 12 15 16 18 18 18 20 21 21 22 23 25 28 30 34 37 39 41 45 48 45 49 53 49 51 50 49 48 46
31 27 24 22 22 20 19 19 18 17 17 16 15 16 16 16 17 19 21 23 23 22 24 25 26 27 28 28 31 33 34 36 42 44 46 47 48 46 50 53 54 53 49 47 45
30 26 24 23 21 21 22 22 21 21 19 19 19 19 19 21 22 24 25 26 27 27 28 29 30 32 30 32 34 36 37 37 41 44 50 50 56 53 51 52 53 53 46 41 43
30 27 25 24 23 24 25 25 24 23 21 21 22 23 24 26 26 28 29 28 29 31 33 34 35 37 37 36 37 40 41 41 45 46 49 53 57 59 59 56 56 54 43 42 46
29 28 27 26 26 26 27 27 25 24 24 25 25 26 29 30 30 32 32 34 34 35 36 39 39 41 42 42 42 43 47 48 48 51 51 57 60 64 64 61 60 57 42 42 48
32 31 30 29 28 28 29 29 28 28 30 29 30 31 32 33 35 35 36 38 39 40 40 43 44 46 47 48 48 49 50 52 51 53 59 58 58 68 70 66 66 60 47 46 50
35 33 33 33 33 31 31 33 33 32 34 34 36 35 37 37 38 40 42 44 45 46 46 47 48 49 51 53 51 54 56 56 56 56 57 62 58 66 70 68 68 59 53 51 54
37 36 36 36 36 36 36 36 35 36 37 39 40 41 42 43 44 45 47 48 49 50 50 51 53 53 55 56 58 59 61 60 60 61 62 65 65 65 71 71 64 57 54 54 59
39 39 39 39 39 39 39 39 39 41 43 43 44 45 46 47 49 49 50 52 53 54 54 55 56 58 59 61 63 65 66 66 64 66 65 67 67 69 71 63 57 53 57 59 64
43 42 42 43 43 43 43 44 45 46 47 47 48 49 50 50 52 53 55 57 58 58 59 59 61 63 64 66 69 72 74 74 69 71 71 71 68 72 66 56 58 57 59 61 66
47 47 46 46 46 47 48 50 50 51 52 51 52 53 55 56 57 59 60 62 64 65 65 63 62 66 67 71 74 76 78 82 81 76 73 74 75 71 62 63 63 64 64 66 69
52 52 51 52 52 53 53 55 55 56 56 58 59 59 61 62 63 64 65 66 68 69 71 68 65 68 72 75 79 79 81 84 87 84 80 76 74 64 66 67 69 71 71 72 74
59 59 59 58 58 59 59 59 60 62 63 63 64 64 65 67 67 70 69 70 71 75 78 76 74 75 78 82 84 86 86 88 89 86 83 79 71 70 74 77 78 80 80 81 84
65 66 66 66 66 66 66 66 66 68 69 69 69 70 71 72 71 72 72 75 76 78 81 83 83 81 84 87 89 90 89 90 90 90 91 85 76 80 81 82 85 87 89 91 92
71 72 73 73 74 73 73 73 73 74 76 75 75 75 76 77 77 78 79 83 82 83 85 89 91 88 89 90 90 90 89 90 92 91 88 83 77 84 89 90 92 95 96 98 99
75 75 78 78 78 79 79 79 79 79 81 81 80 80 82 84 85 83 86 88 89 88 88 87 89 87 84 86 88 86 86 86 84 81 78 84 88 92 94 96 98 100 102 104 105
80 79 81 82 84 84 86 86 85 85 88 89 87 88 90 90 91 90 91 91 89 87 84 87 83 83 78 77 78 75 78 81 87 89 90 88 92 98 98 100 103 105 106 108 109
82 81 83 86 88 89 90 88 90 92 91 91 91 93 95 93 93 93 92 87 84 83 84 87 87 89 88 88 89 86 86 90 95 95 99 93 99 100 101 105 107 108 109 110 112
77 79 79 78 79 77 79 78 84 87 91 94 94 94 93 89 91 84 83 85 86 87 89 91 92 94 90 94 96 90 92 98 100 99 100 101 103 104 107 110 112 114 115 115 116
89 88 87 81 85 85 85 84 82 83 83 83 83 83 85 88 87 88 89 90 91 92 97 98 101 104 100 102 102 94 98 100 103 103 103 106 111 113 114 117 119 120 119 121 121
Wind_Direction
148 147 145 143 144 144 143 139 137 133 127 123 116 110 102 94 87 82 77 73 66 57 51 47 43 36 30 27 23 20 18 19 18 14 10 12 9 9 6 1 2 1 1 3 4
150 149 149 150 149 147 145 143 140 136 132 125 114 105 96 87 80 76 72 67 57 49 45 37 32 28 22 18 16 14 10 10 9 7 6 3 4 3 2 357 352 350 353 354 356
154 153 154 155 155 152 149 148 143 138 133 125 114 111 101 83 75 70 59 51 45 38 33 29 21 18 14 10 9 7 5 4 2 3 360 359 359 359 356 355 347 343 341 344 345
157 159 161 162 158 155 153 152 147 145 141 133 126 116 103 95 77 55 47 39 28 19 18 14 10 8 5 1 360 0 358 359 357 356 354 353 354 354 352 350 348 338 334 334 336
161 164 165 167 165 161 161 160 157 155 151 149 137 128 130 112 73 39 24 14 4 357 354 356 357 356 353 351 352 352 350 350 351 350 351 348 349 351 348 347 344 339 331 326 327
169 172 171 170 169 169 171 171 169 168 172 177 177 183 197 236 322 331 335 335 338 339 337 340 339 342 340 343 344 343 343 343 343 344 343 346 341 346 347 341 339 337 332 323 320
175 177 177 179 178 180 181 185 186 191 197 203 209 220 238 262 287 296 305 312 318 319 320 323 325 329 331 331 332 335 336 337 338 337 338 338 338 338 341 340 336 332 329 325 320
181 185 186 190 191 191 194 200 203 207 212 220 226 239 256 269 280 290 298 301 306 310 313 315 318 320 323 323 326 329 330 330 330 334 335 332 337 334 335 336 334 330 325 321 320
190 194 195 200 202 203 208 211 215 219 225 235 246 252 261 272 279 287 292 296 299 301 305 307 312 313 316 316 318 322 321 324 327 327 326 328 327 331 332 332 331 328 322 319 319
198 203 207 211 215 216 215 219 223 228 235 246 254 263 268 275 282 289 293 295 296 297 300 304 307 306 312 315 315 315 318 316 315 320 321 325 323 327 327 328 328 326 319 318 319
207 210 215 222 225 223 222 224 227 236 247 253 260 265 272 279 283 286 291 295 295 295 295 299 301 303 309 312 309 310 311 312 313 317 320 322 320 322 324 325 326 327 317 317 319
213 219 223 226 228 227 227 229 235 245 250 254 261 268 274 279 282 286 290 291 293 295 298 299 300 301 306 307 306 304 306 309 313 315 318 320 321 320 320 322 324 325 313 316 316
220 224 226 229 231 233 234 238 244 247 254 258 265 271 276 279 283 286 289 291 293 294 295 296 298 300 302 303 304 302 302 306 310 314 316 316 319 318 318 319 321 319 310 307 309
226 228 232 234 236 237 240 243 247 252 260 264 268 271 274 277 280 284 288 291 293 294 295 296 297 298 299 299 300 300 303 305 308 311 313 313 317 314 312 316 316 312 308 304 307
230 234 236 237 238 241 245 249 253 257 262 267 270 272 274 278 282 284 288 291 293 294 295 296 297 298 297 298 299 300 301 304 308 310 312 311 314 312 313 315 312 308 308 307 307
236 239 241 243 244 246 250 254 257 260 263 267 271 274 277 279 282 286 288 290 291 292 293 294 295 295 297 298 299 300 302 305 308 310 310 310 312 309 313 310 310 308 308 309 308
239 243 246 248 250 253 256 258 260 262 264 267 270 273 276 279 281 283 286 288 288 289 292 293 295 296 297 299 300 301 303 304 305 306 309 311 309 307 309 305 304 303 305 306 304
242 245 248 251 253 255 257 259 262 264 267 268 270 273 276 278 280 282 284 286 287 289 290 290 292 294 296 298 301 302 304 305 306 306 308 309 309 309 303 301 301 305 306 304 305
245 248 249 252 254 257 259 261 263 265 267 270 271 272 275 277 279 281 284 286 286 288 288 289 290 292 294 296 298 299 300 302 303 306 307 308 306 303 301 301 304 304 303 304 304
246 250 251 253 255 257 259 261 263 265 266 268 271 272 274 276 278 281 282 282 285 287 289 291 291 292 293 294 296 297 300 301 302 304 303 307 303 301 301 304 304 303 304 306 306
249 251 252 253 255 256 258 260 263 265 267 268 270 272 274 276 278 280 281 282 284 286 288 289 289 290 291 292 294 296 299 300 301 302 302 303 299 301 301 303 303 306 308 307 307
254 256 257 258 259 260 262 264 265 266 268 270 271 273 275 276 278 280 282 284 285 287 289 290 290 290 289 291 292 294 297 298 299 298 299 298 298 299 302 305 307 308 308 308 310
255 256 259 260 261 262 262 263 264 266 268 270 271 273 275 277 278 281 282 283 285 287 288 289 291 292 292 292 292 295 297 298 297 297 299 300 302 301 303 306 307 307 307 308 308
259 260 262 263 264 265 266 267 268 268 270 272 273 275 276 277 280 281 281 283 284 285 286 287 290 293 295 294 293 294 296 299 299 299 298 302 300 301 303 304 304 304 305 305 304
260 261 263 264 265 267 266 266 268 268 269 271 274 277 277 278 278 281 282 282 281 282 283 287 290 293 294 294 295 296 298 300 297 298 298 300 300 299 301 300 301 300 301 302 302
264 263 266 266 267 266 268 269 268 271 272 271 272 274 276 279 279 280 279 281 283 285 287 288 291 291 292 293 293 295 297 295 297 297 298 298 297 298 297 297 298 298 300 301 302
265 266 267 266 267 268 269 271 272 274 273 273 274 276 277 277 278 280 281 281 282 285 287 288 289 290 291 291 291 294 292 293 293 294 295 296 296 297 296 296 296 297 298 299 301